Location: Canet
(43.3261°N, 5.3723°E)
Time: 19:35:18
(UTC+00:00)

USA 234 - Pass Details

Date: 24 January 2021
Orbit: 1100 x 1107 km, 123.0° (Epoch: 06 March)

Event Time Altitude Azimuth Distance (km) Brightness Sun altitude
Exits shadow 17:29:28 - 54° (NE) 3,034 5.0 -9.2°
Reaches altitude 10° 17:29:42 10° 53° (NE) 2,964 4.9 -9.2°
Maximum altitude 17:34:55 27° 359° (N) 1,998 4.5 -10.2°
Drops below altitude 10° 17:40:10 10° 306° (NW) 2,967 6.1 -11.1°
Sets 17:43:02 0° 295° (WNW) 3,926 7.0 -11.6°
